Time,TemperatureF,DewpointF,PressureIn,WindDirection,WindDirectionDegrees,WindSpeedMPH,WindSpeedGustMPH,Humidity,HourlyPrecipIn,Conditions,Clouds,dailyrainin,SoftwareType,DateUTC
2013-07-14 13:23:00,90.0,73.0,30.29,SW,232,0.0,0.0,58,-99.99,,,-99.99,,2013-07-14 17:23:00,
2013-07-14 13:32:00,90.0,74.0,30.29,SW,227,0.0,4.0,60,-99.99,,,-99.99,,2013-07-14 17:32:00,
2013-07-14 13:43:00,90.0,74.0,30.29,SW,227,0.0,4.0,60,-99.99,,,-99.99,,2013-07-14 17:43:00,
2013-07-14 13:53:00,91.0,75.0,30.28,SW,225,0.0,4.0,59,-99.99,,,-99.99,,2013-07-14 17:53:00,
2013-07-14 14:01:00,92.0,73.0,30.28,SSW,209,1.0,5.0,55,-99.99,,,-99.99,,2013-07-14 18:01:00,
2013-07-14 14:11:00,92.0,73.0,30.28,SSW,209,1.0,5.0,55,-99.99,,,-99.99,,2013-07-14 18:11:00,
2013-07-14 14:22:00,93.0,73.0,30.28,SSW,213,0.0,2.0,53,0.00,,,-99.99,,2013-07-14 18:22:00,
2013-07-14 14:32:00,92.0,72.0,30.27,SW,221,0.0,0.0,52,-99.99,,,-99.99,,2013-07-14 18:32:00,
2013-07-14 14:42:00,92.0,72.0,30.27,SW,221,0.0,0.0,52,-99.99,,,-99.99,,2013-07-14 18:42:00,
2013-07-14 14:52:00,93.0,74.0,30.27,SW,221,0.0,3.0,54,-99.99,,,-99.99,,2013-07-14 18:52:00,
2013-07-14 15:02:00,93.0,73.0,30.27,SW,219,1.0,5.0,52,-99.99,,,-99.99,,2013-07-14 19:02:00,
2013-07-14 15:12:00,93.0,73.0,30.27,SW,219,1.0,5.0,52,-99.99,,,-99.99,,2013-07-14 19:12:00,
2013-07-14 15:22:00,93.0,73.0,30.27,SW,219,1.0,5.0,52,-99.99,,,-99.99,,2013-07-14 19:22:00,
2013-07-14 15:32:00,93.0,73.0,30.27,SW,219,1.0,5.0,52,-99.99,,,-99.99,,2013-07-14 19:32:00,
2013-07-14 15:43:00,93.0,73.0,30.27,SW,219,1.0,5.0,52,-99.99,,,-99.99,,2013-07-14 19:43:00,
2013-07-14 15:53:00,92.0,72.0,30.25,SSW,211,0.0,5.0,53,-99.99,,,-99.99,,2013-07-14 19:53:00,
2013-07-14 16:02:00,92.0,72.0,30.25,SW,215,0.0,6.0,52,-99.99,,,-99.99,,2013-07-14 20:02:00,
2013-07-14 16:11:00,92.0,72.0,30.25,SW,215,0.0,6.0,52,-99.99,,,-99.99,,2013-07-14 20:11:00,
2013-07-14 16:22:00,92.0,72.0,30.24,SW,215,0.0,3.0,53,-99.99,,,-99.99,,2013-07-14 20:22:00,
2013-07-14 16:32:00,92.0,73.0,30.24,SW,216,1.0,7.0,54,0.00,,,-99.99,,2013-07-14 20:32:00,
2013-07-14 16:43:00,92.0,73.0,30.24,SW,216,1.0,7.0,54,0.00,,,-99.99,,2013-07-14 20:43:00,
2013-07-14 16:53:00,92.0,73.0,30.24,SW,216,1.0,7.0,54,0.00,,,-99.99,,2013-07-14 20:53:00,
2013-07-14 17:02:00,92.0,73.0,30.24,SW,216,1.0,7.0,54,0.00,,,-99.99,,2013-07-14 21:02:00,
2013-07-14 17:11:00,92.0,73.0,30.24,SW,216,1.0,7.0,54,0.00,,,-99.99,,2013-07-14 21:11:00,
2013-07-14 17:32:00,91.0,71.0,30.23,SSW,210,0.0,3.0,53,-99.99,,,-99.99,,2013-07-14 21:32:00,
2013-07-14 17:43:00,91.0,71.0,30.23,SSW,210,0.0,3.0,53,-99.99,,,-99.99,,2013-07-14 21:43:00,
2013-07-14 17:53:00,91.0,71.0,30.23,SSW,210,0.0,3.0,53,-99.99,,,-99.99,,2013-07-14 21:53:00,
2013-07-14 18:01:00,91.0,71.0,30.23,SSW,210,0.0,3.0,53,-99.99,,,-99.99,,2013-07-14 22:01:00,
2013-07-14 18:11:00,91.0,71.0,30.23,SSW,210,0.0,3.0,53,-99.99,,,-99.99,,2013-07-14 22:11:00,
2013-07-14 18:53:00,90.0,73.0,30.23,SSW,213,0.0,1.0,58,0.00,,,-99.99,,2013-07-14 22:53:00,
2013-07-14 19:02:00,89.0,72.0,30.22,SSW,209,0.0,3.0,58,-99.99,,,-99.99,,2013-07-14 23:02:00,
2013-07-14 19:11:00,89.0,72.0,30.22,SSW,209,0.0,3.0,58,-99.99,,,-99.99,,2013-07-14 23:11:00,
2013-07-14 19:22:00,89.0,72.0,30.22,SSW,204,0.0,3.0,58,-99.99,,,-99.99,,2013-07-14 23:22:00,
2013-07-14 19:32:00,89.0,72.0,30.22,SSW,204,0.0,3.0,58,-99.99,,,-99.99,,2013-07-14 23:32:00,
2013-07-14 19:42:00,89.0,72.0,30.22,SSW,204,0.0,3.0,58,-99.99,,,-99.99,,2013-07-14 23:42:00,
2013-07-14 19:53:00,89.0,72.0,30.22,SSW,204,0.0,3.0,58,-99.99,,,-99.99,,2013-07-14 23:53:00,
2013-07-14 20:02:00,89.0,72.0,30.22,SSW,204,0.0,3.0,58,-99.99,,,-99.99,,2013-07-15 00:02:00,